Location: W�rzburg
(49.7529°N, 9.8822°E)
Time: 20:12:07
(UTC+01:00)

N. Korean satellite - Visible Passes

Search period start: 20 November 2017 00:00
Search period end: 30 November 2017 00:00
Orbit: 460 x 514 km, 97.2° (Epoch: 20 November)

Date Brightness Start Highest point End Pass type
(mag) Time Alt. Az. Time Alt. Az. Time Alt. Az.
20 Nov 6.8 17:45:33 10° SE 17:48:53 43° ENE 17:52:19 10° N visible
20 Nov 9.6 19:20:27 10° SW 19:22:40 16° W 19:24:54 10° NW visible
21 Nov 8.7 06:41:43 10° NNE 06:45:08 33° E 06:48:33 10° SSE visible
21 Nov 7.6 17:22:37 10° ESE 17:25:32 25° ENE 17:28:31 10° N visible
21 Nov 8.7 18:55:56 10° SSW 18:59:00 27° W 19:02:07 10° NW visible
22 Nov 9.7 06:18:46 10° NE 06:21:30 19° E 06:24:15 10° SE visible
22 Nov 7.4 18:31:57 10° S 18:35:24 51° W 18:38:57 10° NNW visible
23 Nov 10.3 05:56:43 10° ENE 05:57:47 11° E 05:58:51 10° ESE visible
23 Nov 6.4 18:08:21 10° SSE 18:11:53 83° E 18:15:31 10° NNW visible
24 Nov 7.4 07:04:33 10° NNE 07:08:18 60° ESE 07:12:01 10° S visible
24 Nov 6.8 17:45:04 10° SE 17:48:27 43° ENE 17:51:56 10° N visible
24 Nov 9.6 19:19:57 10° SW 19:22:13 16° W 19:24:32 10° NW visible
25 Nov 8.7 06:41:18 10° NNE 06:44:44 33° E 06:48:09 10° SSE visible
25 Nov 7.6 17:22:08 10° ESE 17:25:05 25° ENE 17:28:07 10° N visible
25 Nov 8.7 18:55:26 10° SSW 18:58:32 28° W 19:01:43 10° NW visible
26 Nov 9.7 06:18:20 10° NE 06:21:05 19° E 06:23:50 10° SE visible
26 Nov 8.2 16:59:40 10° E 17:01:49 15° ENE 17:03:59 10° NNE visible
26 Nov 7.4 18:31:27 10° S 18:34:56 52° W 18:38:31 10° NNW visible
27 Nov 10.2 05:56:16 10° ENE 05:57:21 11° E 05:58:26 10° ESE visible
27 Nov 6.4 18:07:50 10° SSE 18:11:25 82° ENE 18:15:05 10° NNW visible
28 Nov 7.4 07:04:06 10° NNE 07:07:51 60° E 07:11:34 10° S visible
28 Nov 6.9 17:44:33 10° SE 17:47:58 43° ENE 17:51:29 10° N visible
28 Nov 9.6 19:19:25 10° SW 19:21:44 16° W 19:24:06 10° NW visible
29 Nov 8.7 06:40:49 10° NNE 06:44:16 33° E 06:47:41 10° SSE visible
29 Nov 7.6 17:21:37 10° ESE 17:24:36 25° ENE 17:27:40 10° N visible
29 Nov 8.7 18:54:54 10° SSW 18:58:03 28° W 19:01:17 10° NNW visible
